Date String (YYYY-MM-DD hh:mm:ss) UTC,Instrument flags,absolute air pressure of the measurement (hPa),sample flow rate (lpm),inlet stack bypass flow (lpm),air temperature of the measurement (°C),ambient temperature measured by the external sensor (°C),aerosol sample conditioner tube jacket temperature (°C),OPC LED temperature (°C),internal box temperature (°C),relative humidity of the measurement (%),span deviation,mass concentration of particles derived from Lorenz-Mie calculation of OPC scattering (μg/m³),mass concentration of particles derived from Lorenz-Mie calculation of OPC scattering (μg/m³),mass concentration of particles derived from Lorenz-Mie calculation of OPC scattering (μg/m³)
DateTimeUTC,F1_M11,P_M11,Q1_M11,Q2_M11,T1_M11,T2_M11,T3_M11,T4_M11,T5_M11,U1_M11,ZSPAN_M11,X0_M11,X2_M11,X1_M11
2023-07-12 16:00:00,SystemResetWarning,0833.3,4.99,000.00,029.0,027.1,000.0,037.4,030.6,26.8,0000.0,0025.38,0006.43,0004.41
2023-07-12 16:01:00,SystemResetWarning,0833.1,5.01,000.00,029.1,027.4,000.0,037.5,030.7,27.4,0000.0,0025.02,0006.40,0004.41
2023-07-12 16:02:00,SystemResetWarning,0832.9,5.01,000.00,029.1,027.6,000.0,037.5,030.8,27.1,0000.0,0025.25,0006.43,0004.41
2023-07-12 16:03:00,SystemResetWarning,0833.2,4.98,000.00,029.1,027.8,000.0,037.5,030.8,26.8,0000.0,0025.60,0006.44,0004.41
2023-07-12 16:04:00,SystemResetWarning,0833.1,5.00,000.00,029.2,027.2,000.0,037.4,030.8,27.5,0000.0,0026.41,0006.44,0004.41
2023-07-12 16:05:00,SystemResetWarning,0832.8,5.00,000.00,029.1,025.6,000.0,037.3,030.5,29.2,0000.0,0025.84,0006.55,0004.42
2023-07-12 16:06:00,SystemResetWarning,0832.8,5.02,000.00,029.0,025.2,000.0,037.3,030.4,28.6,0000.0,0026.68,0006.59,0004.42
2023-07-12 16:07:00,SystemResetWarning,0832.9,5.00,000.00,029.0,025.5,000.0,037.3,030.3,28.8,0000.0,0027.66,0006.67,0004.42
2023-07-12 16:08:00,SystemResetWarning,0832.9,5.00,000.00,028.9,025.9,000.0,037.3,030.3,28.1,0000.0,0030.32,0006.77,0004.42
2023-07-12 16:09:00,SystemResetWarning,0832.9,5.00,000.00,028.9,026.3,000.0,037.3,030.4,27.8,0000.0,0031.11,0006.81,0004.41
2023-07-12 16:10:00,SystemResetWarning,0833.3,5.00,000.00,029.0,026.7,000.0,037.4,030.5,29.5,0000.0,0029.89,0006.82,0004.42
2023-07-12 16:11:00,SystemResetWarning,0833.4,5.00,000.00,029.0,027.1,000.0,037.4,030.6,27.9,0000.0,0029.59,0006.95,0004.42
2023-07-12 16:12:00,SystemResetWarning,0833.4,5.00,000.00,029.0,027.4,000.0,037.4,030.7,28.4,0000.0,0030.69,0007.10,0004.42
2023-07-12 16:13:00,SystemResetWarning,0833.3,5.01,000.00,029.0,027.6,000.0,037.4,030.7,28.7,0000.0,0032.70,0007.22,0004.44
2023-07-12 16:14:00,SystemResetWarning,0833.3,5.00,000.00,029.1,027.8,000.0,037.5,030.8,27.5,0000.0,0035.07,0007.25,0004.44
2023-07-12 16:15:00,SystemResetWarning,0833.3,4.99,000.00,029.1,027.4,000.0,037.4,030.8,26.9,0000.0,0035.84,0007.33,0004.45
2023-07-12 16:16:00,SystemResetWarning,0832.9,4.99,000.00,029.1,025.8,000.0,037.3,030.6,25.9,0000.0,0035.65,0007.37,0004.47
2023-07-12 16:17:00,SystemResetWarning,0832.7,5.01,000.00,029.0,025.1,000.0,037.2,030.4,26.3,0000.0,0035.75,0007.37,0004.50
2023-07-12 16:18:00,SystemResetWarning,0832.7,5.01,000.00,028.9,025.4,000.0,037.2,030.3,25.9,0000.0,0036.16,0007.35,0004.51
2023-07-12 16:19:00,SystemResetWarning,0832.8,5.00,000.00,028.9,025.8,000.0,037.3,030.3,25.7,0000.0,0033.74,0007.33,0004.53
2023-07-12 16:20:00,SystemResetWarning,0832.8,5.00,000.00,028.9,026.2,000.0,037.3,030.4,26.0,0000.0,0031.86,0007.28,0004.54
2023-07-12 16:21:00,SystemResetWarning,0832.8,5.00,000.00,028.9,026.6,000.0,037.3,030.5,23.1,0000.0,0032.29,0007.25,0004.55
2023-07-12 16:22:00,SystemResetWarning,0832.7,5.00,000.00,028.9,027.0,000.0,037.4,030.5,24.1,0000.0,0030.87,0007.13,0004.56
2023-07-12 16:23:00,SystemResetWarning,0832.7,5.00,000.00,029.0,027.3,000.0,037.4,030.6,23.6,0000.0,0029.78,0007.03,0004.56
2023-07-12 16:24:00,SystemResetWarning,0832.7,5.00,000.00,029.0,027.6,000.0,037.4,030.7,23.0,0000.0,0028.31,0006.95,0004.56
2023-07-12 16:25:00,SystemResetWarning,0832.7,5.00,000.00,029.1,027.7,000.0,037.4,030.8,22.0,0000.0,0026.35,0006.95,0004.56
2023-07-12 16:26:00,SystemResetWarning,0832.7,4.99,000.00,029.1,026.9,000.0,037.3,030.7,21.0,0000.0,0025.67,0006.88,0004.55
2023-07-12 16:27:00,SystemResetWarning,0832.7,5.01,000.00,029.0,025.4,000.0,037.2,030.4,21.7,0000.0,0025.91,0006.79,0004.53
2023-07-12 16:28:00,SystemResetWarning,0832.7,5.02,000.00,029.0,025.2,000.0,037.2,030.4,19.8,0000.0,0025.73,0006.70,0004.51
2023-07-12 16:29:00,SystemResetWarning,0832.7,4.99,000.00,028.9,025.6,000.0,037.2,030.3,20.2,0000.0,0026.34,0006.60,0004.49
2023-07-12 16:30:00,SystemResetWarning,0832.7,5.00,000.00,028.9,026.0,000.0,037.3,030.3,20.8,0000.0,0026.27,0006.59,0004.48
2023-07-12 16:31:00,SystemResetWarning,0832.7,5.01,000.00,028.9,026.4,000.0,037.3,030.4,21.7,0000.0,0025.94,0006.50,0004.47
2023-07-12 16:32:00,SystemResetWarning,0832.7,5.00,000.00,028.9,026.8,000.0,037.3,030.5,20.6,0000.0,0026.32,0006.40,0004.45
2023-07-12 16:33:00,SystemResetWarning,0832.7,5.00,000.00,028.9,027.1,000.0,037.3,030.6,21.3,0000.0,0026.02,0006.26,0004.42
2023-07-12 16:34:00,SystemResetWarning,0832.7,5.00,000.00,029.0,027.4,000.0,037.4,030.6,21.5,0000.0,0026.05,0006.18,0004.39
2023-07-12 16:35:00,SystemResetWarning,0832.8,5.00,000.00,029.0,027.6,000.0,037.4,030.7,22.4,0000.0,0025.40,0006.12,0004.38
2023-07-12 16:36:00,SystemResetWarning,0832.7,5.00,000.00,029.1,027.6,000.0,037.4,030.8,21.2,0000.0,0023.99,0006.00,0004.36
2023-07-12 16:37:00,SystemResetWarning,0832.7,4.98,000.00,029.0,026.3,000.0,037.3,030.6,21.0,0000.0,0021.48,0005.88,0004.33
2023-07-12 16:38:00,SystemResetWarning,0832.9,5.01,000.00,029.0,025.2,000.0,037.2,030.4,21.4,0000.0,0021.38,0005.85,0004.33
2023-07-12 16:39:00,SystemResetWarning,0832.7,5.02,000.00,028.9,025.4,000.0,037.1,030.4,21.4,0000.0,0020.35,0005.80,0004.32
2023-07-12 16:40:00,SystemResetWarning,0832.7,4.99,000.00,028.9,025.8,000.0,037.2,030.3,21.2,0000.0,0019.63,0005.74,0004.30
2023-07-12 16:41:00,SystemResetWarning,0832.7,5.00,000.00,028.9,026.2,000.0,037.2,030.4,20.9,0000.0,0018.78,0005.61,0004.29
2023-07-12 16:42:00,SystemResetWarning,0832.7,5.00,000.00,028.9,026.6,000.0,037.3,030.4,21.4,0000.0,0019.47,0005.61,0004.28
2023-07-12 16:43:00,SystemResetWarning,0832.7,5.01,000.00,028.9,026.9,000.0,037.3,030.5,22.3,0000.0,0019.04,0005.64,0004.27
2023-07-12 16:44:00,SystemResetWarning,0832.8,4.99,000.00,028.9,027.2,000.0,037.3,030.6,23.7,0000.0,0019.44,0005.69,0004.26
2023-07-12 16:45:00,SystemResetWarning,0832.7,5.00,000.00,029.0,027.5,000.0,037.4,030.7,23.3,0000.0,0019.13,0005.72,0004.25
2023-07-12 16:46:00,SystemResetWarning,0832.7,5.01,000.00,029.0,027.7,000.0,037.4,030.8,23.5,0000.0,0018.49,0005.70,0004.25
2023-07-12 16:47:00,SystemResetWarning,0832.7,5.01,000.00,029.1,027.4,000.0,037.3,030.8,24.7,0000.0,0018.67,0005.73,0004.25
2023-07-12 16:48:00,SystemResetWarning,0832.7,4.98,000.00,029.0,025.8,000.0,037.2,030.5,23.7,0000.0,0019.10,0005.74,0004.24
2023-07-12 16:49:00,SystemResetWarning,0832.7,5.01,000.00,029.0,025.3,000.0,037.2,030.4,23.7,0000.0,0019.22,0005.73,0004.23
2023-07-12 16:50:00,SystemResetWarning,0832.7,5.01,000.00,028.9,025.6,000.0,037.2,030.3,23.4,0000.0,0020.02,0005.73,0004.22
2023-07-12 16:51:00,SystemResetWarning,0832.7,5.00,000.00,028.9,026.0,000.0,037.2,030.3,22.4,0000.0,0019.40,0005.79,0004.23
2023-07-12 16:52:00,SystemResetWarning,0832.7,5.00,000.00,028.9,026.4,000.0,037.3,030.4,22.4,0000.0,0019.21,0005.84,0004.24
2023-07-12 16:53:00,SystemResetWarning,0832.7,5.00,000.00,028.9,026.8,000.0,037.3,030.5,22.8,0000.0,0018.81,0005.86,0004.24
2023-07-12 16:54:00,SystemResetWarning,0832.7,5.01,000.00,028.9,027.1,000.0,037.3,030.6,22.8,0000.0,0018.38,0005.81,0004.24
2023-07-12 16:55:00,SystemResetWarning,0832.7,5.00,000.00,029.0,027.4,000.0,037.4,030.6,22.4,0000.0,0018.38,0005.77,0004.25
2023-07-12 16:56:00,SystemResetWarning,0832.7,5.00,000.00,029.0,027.6,000.0,037.4,030.7,24.9,0000.0,0019.35,0005.76,0004.27
2023-07-12 16:57:00,SystemResetWarning,0832.7,4.98,000.00,029.0,026.6,000.0,037.3,030.6,23.3,0000.0,0020.31,0005.81,0004.28
2023-07-12 16:58:00,SystemResetWarning,0832.7,5.00,000.00,029.0,025.3,000.0,037.2,030.4,22.5,0000.0,0020.82,0005.84,0004.30
2023-07-12 16:59:00,SystemResetWarning,0832.7,5.00,000.00,028.9,025.3,000.0,037.1,030.3,22.3,0000.0,0020.87,0005.84,0004.31
